Погода в Риде

Австрия     48°12′45″N   13°29′33″E
темп.,
°C
ветер,
м/с
пор.,
м/с
влажн.,
%
обл.,
%
осадки,
мм/ч
давл.,
гПа
погр.,
м
23 июня, ср
ср2323:00+17ююв129595 1.7 101466
02:00+17в1297100 3.1 101573
05:00+17юв2497100 1.9 1016181
08:00+17ююв0195100 2.1 1017119
11:00+18юз1295100 0.1 1018229
14:00+21всв118131 0.1 1017545
17:00+25в346331 0.0 10151268
20:00+21всв498453 0.4 1015360
24 июня, чт
чт2423:00+18всв41193100 1.5 1015411
02:00+17сз2498100 1.9 1016163
05:00+17юз239876 0.2 1017145
08:00+18з359273 0.2 1017376
11:00+21сз227644 0.1 1017764
14:00+24ссз226242 0.1 10151175
17:00+25с135929 0.0 1012863
20:00+21с248290 0.1 1012169
25 июня, пт
пт2523:00+18зюз4796100 0.7 1014241
02:00+15з5109799 3.9 1017543
05:00+14зюз61295100 0.3 1018695
08:00+14з51193100 0.9 1019663
11:00+16з578591 0.1 1019710
14:00+18зсз567664 0.6 10191016
17:00+18сз457230 1.0 10181017
20:00+16з368598 1.3 1019345
26 июня, сб
сб2623:00+13з2396100 0.1 102064
02:00+12зюз2597100 0.1 1021140
05:00+11зюз23974 0.0 102154
08:00+14з23856 0.0 1021339
11:00+18сз226714 0.0 1020930
14:00+21сз225717 0.0 10181092
17:00+22ссз215689 0.0 1017849
20:00+19ссв00772 0.0 101611
27 июня, вс
вс2723:00+15в1187100 0.0 101811
02:00+13вюв229224 0.0 101814
05:00+12вюв22955 0.0 101823
08:00+17вюв368392 0.0 1017314
11:00+22в46632 0.0 1015644
14:00+26в565133 0.0 1013895
17:00+27в594744 0.0 1011778
20:00+23в513605 0.0 1011467